Regional Weather Roundup
Issued by NWS

Home | Current Version | Previous Version | Text Only | Print | Product List | Glossary On
Versions: 1 2 3 4 5 6 7 8 9 10 11 12 13 14 15 16 17 18 19 20 21 22 23 24 25 26 27 28 29 30 31 32 33 34 35 36 37 38 39 40 41 42 43 44 45 46 47 48 49 50
000
ASUS46 KPQR 020210
RWROR

OREGON REGIONAL WEATHER ROUNDUP
NATIONAL WEATHER SERVICE PORTLAND OR
700 PM PDT MON SEP 01 2014

NOTE: "FAIR" INDICATES FEW OR NO CLOUDS BELOW 12,000 FEET WITH
NO SIGNIFICANT WEATHER AND/OR OBSTRUCTIONS TO VISIBILITY.

ORZ001>013-020300-
NORTHWEST OREGON


CITY           SKY/WX    TMP DP  RH WIND       PRES   REMARKS
ASTORIA        CLOUDY    66  60  81 W5        30.02F
NEWPORT        CLEAR     63  61  94 N12       30.04F
PORTLAND       PTCLDY    78  55  44 NW7       29.97S
VANCOUVER WA   PTCLDY    77  52  41 N7        29.96F
SCAPPOOSE      PTCLDY    76  56  49 NW8       29.97S
HILLSBORO      PTCLDY    75  55  49 NE6       29.97F
AURORA         CLEAR     77  53  43 N10       29.97F
MCMINNVILLE    CLOUDY    79  55  43 NE6       29.96F
SALEM          CLEAR     80  52  37 N10       29.94F
CORVALLIS      CLEAR     79  57  47 NW13      29.96F
EUGENE         CLEAR     81  52  36 N13       29.94F
$$

ORZ021-028-020300-
SOUTHWEST OREGON


CITY           SKY/WX    TMP DP  RH WIND       PRES   REMARKS
NORTH BEND     CLEAR     66  61  82 N21G26    29.98S
BROOKINGS      CLEAR     83  57  40 NW8       29.82F
ROSEBURG       CLEAR     85  48  27 N9        29.90F
SEXTON SUMMIT  CLEAR     67  44  43 VRB3G21   30.03F
MEDFORD        CLEAR     88  46  23 N13       29.86S
$$

ORZ009-041-020300-
COLUMBIA GORGE


CITY           SKY/WX    TMP DP  RH WIND       PRES   REMARKS
TROUTDALE      CLEAR     79  51  37 NW3       29.95F
THE DALLES     CLEAR     79  50  36 W23       29.90F
$$

ORZ029>031-042>050-061>064-020300-
EASTERN OREGON


CITY           SKY/WX    TMP DP  RH WIND       PRES   REMARKS
REDMOND        CLEAR     76  38  25 NW5       29.98F
BEND           CLEAR    N/A N/A N/A N6        30.00F
KLAMATH FALLS  CLEAR     78  35  21 N9        30.00F
LAKEVIEW       CLEAR     75  36  23 N12       30.05S
HERMISTON      CLEAR     79  47  32 NE6       29.89F
PENDLETON      CLEAR     76  42  29 N7        29.93F
JOHN DAY       CLEAR     74  37  26 CALM      30.01F
MEACHAM        CLEAR     64  39  39 CALM      30.04S
LA GRANDE      CLEAR     73  39  29 CALM      29.98S
BAKER CITY     CLEAR     68  48  48 W3        30.01F
BURNS          CLEAR     74  33  22 SW6       30.02F
ROME             N/A     79  32  18 NE5       30.00S
ONTARIO        CLEAR     73  46  38 E3        29.97F
$$



USA.gov is the U.S. government's official web portal to all federal, state and local government web resources and services.